AAL2076 KCLT-KEYW

Flight info

Callsign AAL2076
Flight time 1h 46m
Altitude 36000
Route BEAVY6 JENDO MAVRC TEUFL Q75 ENEME FNTSY1
Aircraft A319/M-SDE3FGHIRWY/LB1

Departure

Time 2026-05-04 23:30
Airport Charlotte Douglas International Airport (KCLT)

Arrival

Time 2026-05-05 01:17
Airport Key West International Airport (KEYW)
Time Latitude Longitude Altitude Speed Heading
2026-05-04 23:13 35.21896 -80.94196 732 ft 0 kts 252°
2026-05-04 23:23 35.21897 -80.94172 730 ft 4 kts 287°
2026-05-04 23:23 35.21891 -80.94141 730 ft 4 kts 270°
2026-05-04 23:23 35.21898 -80.94112 730 ft 4 kts 210°
2026-05-04 23:24 35.21917 -80.94108 730 ft 4 kts 175°
2026-05-04 23:24 35.21926 -80.94108 731 ft 0 kts 175°
2026-05-04 23:26 35.21917 -80.94107 730 ft 3 kts 170°
2026-05-04 23:26 35.21882 -80.94067 731 ft 11 kts 139°
2026-05-04 23:27 35.21826 -80.93994 731 ft 12 kts 101°
2026-05-04 23:27 35.21852 -80.93889 732 ft 14 kts 69°
2026-05-04 23:27 35.21917 -80.93794 732 ft 15 kts 47°
2026-05-04 23:27 35.22000 -80.93712 733 ft 16 kts
2026-05-04 23:28 35.22112 -80.93721 733 ft 17 kts 356°
2026-05-04 23:28 35.22231 -80.93730 733 ft 18 kts 355°
2026-05-04 23:28 35.22357 -80.93741 733 ft 19 kts 356°
2026-05-04 23:28 35.22423 -80.93746 733 ft 0 kts 356°
2026-05-04 23:29 35.22429 -80.93747 733 ft 3 kts 356°
2026-05-04 23:29 35.22477 -80.93748 734 ft 9 kts
2026-05-04 23:29 35.22507 -80.93689 735 ft 11 kts 88°
2026-05-04 23:29 35.22444 -80.93617 736 ft 25 kts 175°
2026-05-04 23:30 35.22009 -80.93579 736 ft 97 kts 176°
2026-05-04 23:30 35.21141 -80.93504 745 ft 150 kts 176°
2026-05-04 23:30 35.20099 -80.93403 1342 ft 149 kts 177°
2026-05-04 23:30 35.19061 -80.93299 2031 ft 149 kts 179°
2026-05-04 23:31 35.18039 -80.93501 2615 ft 154 kts 195°
2026-05-04 23:31 35.16933 -80.93865 2960 ft 176 kts 196°
2026-05-04 23:31 35.15672 -80.94283 3307 ft 200 kts 196°
2026-05-04 23:31 35.14249 -80.94754 3751 ft 224 kts 196°
2026-05-04 23:32 35.12663 -80.95276 4251 ft 247 kts 196°
2026-05-04 23:32 35.10963 -80.95836 5049 ft 257 kts 196°
2026-05-04 23:32 35.09236 -80.96406 5936 ft 263 kts 197°
2026-05-04 23:32 35.07447 -80.96994 6801 ft 270 kts 197°
2026-05-04 23:33 35.05617 -80.97595 7674 ft 274 kts 197°
2026-05-04 23:33 35.03756 -80.98208 8576 ft 278 kts 198°
2026-05-04 23:33 35.01875 -80.98830 9493 ft 282 kts 198°
2026-05-04 23:33 34.99961 -80.99461 10301 ft 290 kts 198°
2026-05-04 23:34 34.97935 -81.00130 10626 ft 314 kts 198°
2026-05-04 23:34 34.95754 -81.00853 10998 ft 334 kts 198°
2026-05-04 23:34 34.94231 -81.01356 11439 ft 339 kts 198°
2026-05-04 23:34 34.91178 -81.02357 12436 ft 346 kts 198°
2026-05-04 23:35 34.88832 -81.03121 13190 ft 351 kts 198°
2026-05-04 23:35 34.86457 -81.03895 13930 ft 356 kts 198°
2026-05-04 23:35 34.84050 -81.04681 14600 ft 360 kts 198°
2026-05-04 23:35 34.81625 -81.05476 15272 ft 364 kts 198°
2026-05-04 23:36 34.79119 -81.06082 15928 ft 370 kts 191°
2026-05-04 23:36 34.76558 -81.06545 16607 ft 374 kts 192°
2026-05-04 23:36 34.73968 -81.07012 17268 ft 378 kts 192°
2026-05-04 23:36 34.71358 -81.07487 17920 ft 382 kts 192°
2026-05-04 23:37 34.68713 -81.07973 18532 ft 386 kts 192°
2026-05-04 23:37 34.66046 -81.08465 19117 ft 389 kts 192°
2026-05-04 23:37 34.63358 -81.08956 19711 ft 392 kts 192°
2026-05-04 23:37 34.60650 -81.09450 20309 ft 395 kts 192°
2026-05-04 23:38 34.57929 -81.09947 20905 ft 397 kts 193°
2026-05-04 23:38 34.55184 -81.10461 21493 ft 400 kts 193°
2026-05-04 23:38 34.52436 -81.11025 22076 ft 402 kts 194°
2026-05-04 23:38 34.49674 -81.11629 22646 ft 404 kts 195°
2026-05-04 23:39 34.46896 -81.12251 23194 ft 407 kts 195°
2026-05-04 23:39 34.44103 -81.12873 23722 ft 410 kts 195°
2026-05-04 23:39 34.41283 -81.13492 24173 ft 412 kts 195°
2026-05-04 23:39 34.38453 -81.14100 24613 ft 415 kts 194°
2026-05-04 23:40 34.35611 -81.14744 25038 ft 416 kts 196°
2026-05-04 23:40 34.32781 -81.15513 25461 ft 417 kts 198°
2026-05-04 23:40 34.29961 -81.16374 25883 ft 419 kts 199°
2026-05-04 23:40 34.27138 -81.17281 26302 ft 421 kts 200°
2026-05-04 23:41 34.24304 -81.18197 26721 ft 423 kts 199°
2026-05-04 23:41 34.21451 -81.19104 27131 ft 426 kts 199°
2026-05-04 23:41 34.18572 -81.19996 27536 ft 428 kts 199°
2026-05-04 23:41 34.15712 -81.20865 27935 ft 430 kts 199°
2026-05-04 23:42 34.12808 -81.21735 28328 ft 432 kts 199°
2026-05-04 23:42 34.09877 -81.22606 28713 ft 435 kts 199°
2026-05-04 23:42 34.06932 -81.23477 29101 ft 437 kts 199°
2026-05-04 23:42 34.03978 -81.24355 29461 ft 439 kts 199°
2026-05-04 23:43 34.01011 -81.25242 29818 ft 441 kts 199°
2026-05-04 23:43 33.98026 -81.26137 30155 ft 443 kts 199°
2026-05-04 23:43 33.95029 -81.27036 30449 ft 445 kts 199°
2026-05-04 23:43 33.92022 -81.27937 30749 ft 446 kts 199°
2026-05-04 23:44 33.89006 -81.28838 31049 ft 447 kts 199°
2026-05-04 23:44 33.85990 -81.29737 31467 ft 446 kts 199°
2026-05-04 23:44 33.83011 -81.30722 31896 ft 440 kts 204°
2026-05-04 23:44 33.80144 -81.31971 32329 ft 437 kts 205°
2026-05-04 23:45 33.77293 -81.33219 32768 ft 435 kts 205°
2026-05-04 23:45 33.74451 -81.34458 33202 ft 434 kts 205°
2026-05-04 23:45 33.71621 -81.35690 33651 ft 431 kts 205°
2026-05-04 23:45 33.68803 -81.36917 34090 ft 429 kts 205°
2026-05-04 23:46 33.65999 -81.38136 34450 ft 428 kts 205°
2026-05-04 23:46 33.63196 -81.39354 34791 ft 428 kts 205°
2026-05-04 23:46 33.60399 -81.40566 35090 ft 428 kts 205°
2026-05-04 23:46 33.57594 -81.41784 35378 ft 429 kts 205°
2026-05-04 23:47 33.54786 -81.43000 35671 ft 429 kts 205°
2026-05-04 23:47 33.51978 -81.44211 35942 ft 430 kts 205°
2026-05-04 23:47 33.46356 -81.46643 36057 ft 429 kts 205°
2026-05-04 23:48 33.40746 -81.49065 36060 ft 428 kts 205°
2026-05-04 23:48 33.35174 -81.51462 36057 ft 428 kts 205°
2026-05-04 23:49 33.29528 -81.53887 36059 ft 429 kts 205°
2026-05-04 23:49 33.23951 -81.56280 36055 ft 429 kts 205°
2026-05-04 23:50 33.18302 -81.58701 36053 ft 429 kts 205°
2026-05-04 23:50 33.12727 -81.61095 36052 ft 429 kts 205°
2026-05-04 23:51 33.07108 -81.63503 36046 ft 429 kts 206°
2026-05-04 23:51 33.01498 -81.65907 36047 ft 429 kts 205°
2026-05-04 23:52 32.95875 -81.68301 36045 ft 429 kts 205°
2026-05-04 23:52 32.90252 -81.70690 36049 ft 429 kts 205°
2026-05-04 23:53 32.84622 -81.73084 36054 ft 430 kts 205°
2026-05-04 23:53 32.78990 -81.75480 36053 ft 430 kts 205°
2026-05-04 23:54 32.73355 -81.77871 36055 ft 430 kts 206°
2026-05-04 23:54 32.67728 -81.80262 36061 ft 430 kts 205°
2026-05-04 23:55 32.62035 -81.82505 36036 ft 435 kts 199°
2026-05-04 23:56 32.54138 -81.84542 36036 ft 436 kts 198°
2026-05-04 23:56 32.48200 -81.86066 36037 ft 436 kts 199°
2026-05-04 23:57 32.42262 -81.87584 36034 ft 437 kts 199°
2026-05-04 23:57 32.36328 -81.89109 36041 ft 437 kts 199°
2026-05-04 23:58 32.30389 -81.90638 36051 ft 437 kts 199°
2026-05-04 23:58 32.24439 -81.92174 36053 ft 437 kts 199°
2026-05-04 23:59 32.18490 -81.93702 36052 ft 438 kts 199°
2026-05-04 23:59 32.12539 -81.95226 36053 ft 438 kts 199°
2026-05-05 00:00 32.06584 -81.96741 36048 ft 438 kts 199°
2026-05-05 00:00 32.00665 -81.98241 36047 ft 438 kts 200°
2026-05-05 00:01 31.94710 -81.99758 36045 ft 438 kts 200°
2026-05-05 00:01 31.88741 -82.01273 36039 ft 439 kts 200°
2026-05-05 00:02 31.82901 -82.03157 36025 ft 434 kts 205°
2026-05-05 00:02 31.77133 -82.05257 36057 ft 434 kts 205°
2026-05-05 00:03 31.71367 -82.07355 36058 ft 434 kts 205°
2026-05-05 00:03 31.65594 -82.09455 36061 ft 434 kts 206°
2026-05-05 00:04 31.59812 -82.11547 36064 ft 435 kts 206°
2026-05-05 00:04 31.54030 -82.13632 36063 ft 435 kts 206°
2026-05-05 00:05 31.48243 -82.15721 36062 ft 435 kts 206°
2026-05-05 00:05 31.42454 -82.17804 36043 ft 435 kts 206°
2026-05-05 00:06 31.36671 -82.19886 36045 ft 435 kts 206°
2026-05-05 00:06 31.30884 -82.21970 36043 ft 435 kts 206°
2026-05-05 00:07 31.25105 -82.24045 36044 ft 435 kts 206°
2026-05-05 00:07 31.19313 -82.26122 36047 ft 435 kts 206°
2026-05-05 00:08 31.13527 -82.28203 36048 ft 435 kts 206°
2026-05-05 00:08 31.07736 -82.30285 36057 ft 435 kts 206°
2026-05-05 00:09 31.01978 -82.32337 36068 ft 436 kts 206°
2026-05-05 00:09 30.96181 -82.34391 36077 ft 436 kts 206°
2026-05-05 00:10 30.90382 -82.36459 36090 ft 436 kts 206°
2026-05-05 00:10 30.84578 -82.38540 36090 ft 436 kts 206°
2026-05-05 00:11 30.78764 -82.40607 36093 ft 437 kts 206°
2026-05-05 00:11 30.72945 -82.42665 36092 ft 437 kts 206°
2026-05-05 00:12 30.66894 -82.44076 36097 ft 451 kts 196°
2026-05-05 00:12 30.60657 -82.44923 36107 ft 451 kts 196°
2026-05-05 00:13 30.54417 -82.45767 36105 ft 452 kts 196°
2026-05-05 00:13 30.48184 -82.46629 36091 ft 452 kts 196°
2026-05-05 00:14 30.41925 -82.47495 36069 ft 453 kts 196°
2026-05-05 00:14 30.35701 -82.48338 36050 ft 453 kts 195°
2026-05-05 00:15 30.29399 -82.49195 36037 ft 454 kts 195°
2026-05-05 00:15 30.23128 -82.50052 36020 ft 454 kts 195°
2026-05-05 00:15 30.19991 -82.50479 35582 ft 453 kts 195°
2026-05-05 00:16 30.16820 -82.50727 35164 ft 460 kts 189°
2026-05-05 00:16 30.13613 -82.50787 35022 ft 462 kts 190°
2026-05-05 00:16 30.10389 -82.50861 35066 ft 464 kts 190°
2026-05-05 00:17 30.03918 -82.51014 35062 ft 465 kts 190°
2026-05-05 00:17 29.97441 -82.51159 35061 ft 466 kts 189°
2026-05-05 00:18 29.90952 -82.51300 35059 ft 467 kts 189°
2026-05-05 00:18 29.84458 -82.51447 35056 ft 467 kts 189°
2026-05-05 00:19 29.77954 -82.51587 35049 ft 467 kts 189°
2026-05-05 00:19 29.71450 -82.51726 35045 ft 468 kts 189°
2026-05-05 00:20 29.64946 -82.51866 35042 ft 468 kts 189°
2026-05-05 00:20 29.58429 -82.52013 35032 ft 469 kts 189°
2026-05-05 00:21 29.51905 -82.52154 35030 ft 469 kts 189°
2026-05-05 00:21 29.45374 -82.52297 35021 ft 470 kts 189°
2026-05-05 00:22 29.38874 -82.52434 35014 ft 470 kts 189°
2026-05-05 00:22 29.32287 -82.52570 35011 ft 470 kts 189°
2026-05-05 00:23 29.25772 -82.52636 35009 ft 476 kts 184°
2026-05-05 00:23 29.19136 -82.51567 35021 ft 483 kts 178°
2026-05-05 00:24 29.12489 -82.50350 35021 ft 484 kts 178°
2026-05-05 00:24 29.05833 -82.49139 35025 ft 485 kts 178°
2026-05-05 00:25 28.99169 -82.47927 35032 ft 485 kts 178°
2026-05-05 00:25 28.92500 -82.46715 35035 ft 485 kts 178°
2026-05-05 00:26 28.85834 -82.45511 35035 ft 485 kts 178°
2026-05-05 00:26 28.79158 -82.44310 35034 ft 486 kts 178°
2026-05-05 00:27 28.72482 -82.43106 35033 ft 486 kts 178°
2026-05-05 00:27 28.65793 -82.41903 35026 ft 486 kts 178°
2026-05-05 00:28 28.59113 -82.40703 35021 ft 487 kts 178°
2026-05-05 00:28 28.52417 -82.39497 35023 ft 487 kts 178°
2026-05-05 00:29 28.45725 -82.38296 35022 ft 487 kts 178°
2026-05-05 00:29 28.39020 -82.37093 35022 ft 488 kts 178°
2026-05-05 00:30 28.32314 -82.35903 35018 ft 488 kts 178°
2026-05-05 00:30 28.25594 -82.34705 35034 ft 489 kts 178°
2026-05-05 00:31 28.18876 -82.33500 35034 ft 489 kts 178°
2026-05-05 00:31 28.12160 -82.32301 35018 ft 489 kts 178°
2026-05-05 00:32 28.05421 -82.31112 35023 ft 489 kts 178°
2026-05-05 00:32 27.98760 -82.29179 35026 ft 498 kts 169°
2026-05-05 00:33 27.92140 -82.26893 35027 ft 497 kts 169°
2026-05-05 00:33 27.85520 -82.24652 35037 ft 497 kts 169°
2026-05-05 00:34 27.78893 -82.22392 35029 ft 497 kts 169°
2026-05-05 00:34 27.72277 -82.20143 35022 ft 497 kts 169°
2026-05-05 00:35 27.65647 -82.17886 35011 ft 497 kts 169°
2026-05-05 00:35 27.59026 -82.15623 35006 ft 497 kts 169°
2026-05-05 00:36 27.52402 -82.13357 35007 ft 497 kts 169°
2026-05-05 00:36 27.45780 -82.11105 35002 ft 497 kts 169°
2026-05-05 00:37 27.39162 -82.08864 35002 ft 497 kts 169°
2026-05-05 00:37 27.32547 -82.06626 35000 ft 497 kts 169°
2026-05-05 00:38 27.25964 -82.04404 34998 ft 497 kts 169°
2026-05-05 00:38 27.19302 -82.02159 35001 ft 497 kts 169°
2026-05-05 00:39 27.12720 -81.99932 35007 ft 497 kts 169°
2026-05-05 00:39 27.06329 -81.96786 35008 ft 510 kts 152°
2026-05-05 00:40 27.00827 -81.91677 35013 ft 516 kts 139°
2026-05-05 00:40 26.95605 -81.86143 35016 ft 517 kts 140°
2026-05-05 00:41 26.90366 -81.80641 35020 ft 516 kts 140°
2026-05-05 00:41 26.85113 -81.75153 35015 ft 516 kts 140°
2026-05-05 00:42 26.79870 -81.69675 34999 ft 515 kts 140°
2026-05-05 00:42 26.74641 -81.64197 35001 ft 515 kts 140°
2026-05-05 00:43 26.70299 -81.59635 35003 ft 515 kts 140°
2026-05-05 00:43 26.65083 -81.54168 35002 ft 514 kts 140°
2026-05-05 00:44 26.59854 -81.48719 35005 ft 514 kts 141°
2026-05-05 00:44 26.54619 -81.43281 35006 ft 513 kts 141°
2026-05-05 00:45 26.49396 -81.37854 35008 ft 513 kts 141°
2026-05-05 00:45 26.44169 -81.32428 35011 ft 512 kts 141°
2026-05-05 00:46 26.38959 -81.27024 35010 ft 512 kts 141°
2026-05-05 00:46 26.33748 -81.21624 35006 ft 511 kts 141°
2026-05-05 00:47 26.28584 -81.16160 35020 ft 513 kts 135°
2026-05-05 00:47 26.23953 -81.10094 35012 ft 514 kts 133°
2026-05-05 00:48 26.19332 -81.04014 35020 ft 514 kts 133°
2026-05-05 00:48 26.14743 -80.97989 35026 ft 513 kts 134°
2026-05-05 00:49 26.10095 -80.91898 35033 ft 513 kts 134°
2026-05-05 00:49 26.05514 -80.85887 35031 ft 512 kts 134°
2026-05-05 00:50 26.00901 -80.79857 35033 ft 512 kts 134°
2026-05-05 00:50 25.96293 -80.73837 35029 ft 511 kts 134°
2026-05-05 00:51 25.91125 -80.68569 34830 ft 500 kts 149°
2026-05-05 00:51 25.88214 -80.66522 34594 ft 490 kts 160°
2026-05-05 00:51 25.85082 -80.65204 34248 ft 476 kts 173°
2026-05-05 00:51 25.81844 -80.64778 33373 ft 464 kts 189°
2026-05-05 00:52 25.78646 -80.65083 32498 ft 461 kts 193°
2026-05-05 00:52 25.75435 -80.65426 31526 ft 467 kts 192°
2026-05-05 00:52 25.72195 -80.65711 30937 ft 465 kts 191°
2026-05-05 00:52 25.68988 -80.65943 30393 ft 460 kts 191°
2026-05-05 00:53 25.65803 -80.66148 29779 ft 457 kts 191°
2026-05-05 00:53 25.62645 -80.66344 29211 ft 451 kts 190°
2026-05-05 00:53 25.59537 -80.66546 28659 ft 445 kts 191°
2026-05-05 00:53 25.56456 -80.66760 28116 ft 440 kts 191°
2026-05-05 00:54 25.53422 -80.66984 27576 ft 435 kts 191°
2026-05-05 00:54 25.50411 -80.67214 27043 ft 431 kts 191°
2026-05-05 00:54 25.47435 -80.67443 26513 ft 427 kts 191°
2026-05-05 00:54 25.44485 -80.67669 26000 ft 423 kts 191°
2026-05-05 00:55 25.41560 -80.67891 25487 ft 420 kts 191°
2026-05-05 00:55 25.38667 -80.68184 24932 ft 413 kts 196°
2026-05-05 00:55 25.35891 -80.68877 24408 ft 407 kts 201°
2026-05-05 00:55 25.33156 -80.69645 23902 ft 405 kts 201°
2026-05-05 00:56 25.30437 -80.70409 23362 ft 403 kts 201°
2026-05-05 00:56 25.27728 -80.71169 22869 ft 400 kts 201°
2026-05-05 00:56 25.25042 -80.71922 22391 ft 397 kts 201°
2026-05-05 00:56 25.22378 -80.72670 21925 ft 394 kts 201°
2026-05-05 00:57 25.19726 -80.73417 21460 ft 392 kts 201°
2026-05-05 00:57 25.17094 -80.74158 20991 ft 390 kts 201°
2026-05-05 00:57 25.14476 -80.74891 20521 ft 388 kts 201°
2026-05-05 00:57 25.11862 -80.75620 20035 ft 386 kts 200°
2026-05-05 00:58 25.09258 -80.76349 19549 ft 385 kts 200°
2026-05-05 00:58 25.06666 -80.77075 19052 ft 384 kts 200°
2026-05-05 00:58 25.04072 -80.77800 18544 ft 384 kts 200°
2026-05-05 00:58 25.01537 -80.78655 18002 ft 377 kts 208°
2026-05-05 00:59 24.99275 -80.80020 17495 ft 367 kts 220°
2026-05-05 00:59 24.97333 -80.81805 17001 ft 361 kts 226°
2026-05-05 00:59 24.95485 -80.83653 16511 ft 358 kts 226°
2026-05-05 00:59 24.93642 -80.85490 16025 ft 355 kts 226°
2026-05-05 01:00 24.91816 -80.87305 15553 ft 353 kts 226°
2026-05-05 01:00 24.89996 -80.89112 15067 ft 351 kts 226°
2026-05-05 01:00 24.88190 -80.90905 14595 ft 348 kts 226°
2026-05-05 01:00 24.86395 -80.92682 14111 ft 347 kts 225°
2026-05-05 01:01 24.84603 -80.94452 13614 ft 345 kts 225°
2026-05-05 01:01 24.82825 -80.96209 13085 ft 342 kts 225°
2026-05-05 01:01 24.81059 -80.97954 12621 ft 339 kts 225°
2026-05-05 01:01 24.79316 -80.99677 12135 ft 336 kts 225°
2026-05-05 01:02 24.77597 -81.01401 11636 ft 333 kts 227°
2026-05-05 01:02 24.76180 -81.03381 11140 ft 328 kts 240°
2026-05-05 01:02 24.74999 -81.05521 10633 ft 326 kts 240°
2026-05-05 01:02 24.73827 -81.07629 10368 ft 317 kts 240°
2026-05-05 01:03 24.72702 -81.09637 10236 ft 299 kts 240°
2026-05-05 01:03 24.71643 -81.11522 10035 ft 282 kts 240°
2026-05-05 01:03 24.70626 -81.13334 9694 ft 273 kts 240°
2026-05-05 01:03 24.69628 -81.15117 9578 ft 274 kts 240°
2026-05-05 01:04 24.68628 -81.16905 9367 ft 274 kts 240°
2026-05-05 01:04 24.66638 -81.20457 8681 ft 272 kts 239°
2026-05-05 01:04 24.65648 -81.22222 8313 ft 271 kts 239°
2026-05-05 01:05 24.64626 -81.23959 7956 ft 271 kts 233°
2026-05-05 01:05 24.63400 -81.25520 7840 ft 270 kts 231°
2026-05-05 01:05 24.62168 -81.27083 7719 ft 270 kts 231°
2026-05-05 01:05 24.60939 -81.28647 7586 ft 270 kts 231°
2026-05-05 01:06 24.59712 -81.30209 7458 ft 270 kts 231°
2026-05-05 01:06 24.58487 -81.31769 7323 ft 270 kts 231°
2026-05-05 01:06 24.57264 -81.33327 7191 ft 269 kts 230°
2026-05-05 01:06 24.56079 -81.34884 7058 ft 268 kts 236°
2026-05-05 01:07 24.55154 -81.36683 6930 ft 267 kts 244°
2026-05-05 01:07 24.54306 -81.38497 6798 ft 267 kts 243°
2026-05-05 01:07 24.53462 -81.40283 6675 ft 267 kts 243°
2026-05-05 01:07 24.52609 -81.42085 6542 ft 267 kts 243°
2026-05-05 01:08 24.51752 -81.43892 6409 ft 266 kts 243°
2026-05-05 01:08 24.50898 -81.45689 6273 ft 265 kts 243°
2026-05-05 01:08 24.50042 -81.47489 6142 ft 266 kts 243°
2026-05-05 01:08 24.49189 -81.49287 6013 ft 265 kts 243°
2026-05-05 01:09 24.48337 -81.51081 5884 ft 265 kts 243°
2026-05-05 01:09 24.47485 -81.52874 5757 ft 265 kts 243°
2026-05-05 01:09 24.46732 -81.54721 5620 ft 264 kts 253°
2026-05-05 01:09 24.46446 -81.56704 5496 ft 265 kts 268°
2026-05-05 01:10 24.46440 -81.58729 5368 ft 265 kts 269°
2026-05-05 01:10 24.46428 -81.60751 5239 ft 265 kts 269°
2026-05-05 01:10 24.46409 -81.62776 5106 ft 265 kts 269°
2026-05-05 01:10 24.46388 -81.64783 4981 ft 259 kts 269°
2026-05-05 01:11 24.46366 -81.66716 4871 ft 247 kts 269°
2026-05-05 01:11 24.46348 -81.68558 4767 ft 235 kts 269°
2026-05-05 01:11 24.46333 -81.70309 4664 ft 225 kts 269°
2026-05-05 01:11 24.46318 -81.71989 4565 ft 217 kts 269°
2026-05-05 01:12 24.46303 -81.73629 4454 ft 214 kts 269°
2026-05-05 01:12 24.46287 -81.75263 4353 ft 214 kts 269°
2026-05-05 01:12 24.46270 -81.76900 4250 ft 214 kts 269°
2026-05-05 01:12 24.46253 -81.78534 4092 ft 214 kts 269°
2026-05-05 01:13 24.46235 -81.80165 3817 ft 213 kts 269°
2026-05-05 01:13 24.46222 -81.81792 3542 ft 213 kts 270°
2026-05-05 01:13 24.46306 -81.83417 3243 ft 214 kts 285°
2026-05-05 01:13 24.46983 -81.84824 3019 ft 213 kts 314°
2026-05-05 01:14 24.48216 -81.85692 2771 ft 213 kts 343°
2026-05-05 01:14 24.49678 -81.85792 2530 ft 211 kts
2026-05-05 01:14 24.51139 -81.85606 2273 ft 211 kts
2026-05-05 01:14 24.52591 -81.85424 2014 ft 209 kts
2026-05-05 01:15 24.54016 -81.85247 1774 ft 202 kts
2026-05-05 01:15 24.55255 -81.84684 1507 ft 190 kts 47°
2026-05-05 01:15 24.55724 -81.83427 1285 ft 172 kts 83°
2026-05-05 01:15 24.55761 -81.82194 1065 ft 153 kts 90°
2026-05-05 01:16 24.55699 -81.81086 845 ft 140 kts 99°
2026-05-05 01:16 24.55604 -81.80047 605 ft 135 kts 95°
2026-05-05 01:16 24.55594 -81.79032 425 ft 131 kts 93°
2026-05-05 01:16 24.55595 -81.78034 247 ft 131 kts 91°
2026-05-05 01:17 24.55605 -81.77037 84 ft 130 kts 92°
2026-05-05 01:17 24.55610 -81.76081 10 ft 112 kts 89°
2026-05-05 01:17 24.55616 -81.75544 12 ft 27 kts 89°
2026-05-05 01:17 24.55618 -81.75415 11 ft 19 kts 90°
2026-05-05 01:18 24.55617 -81.75276 10 ft 12 kts 97°
2026-05-05 01:18 24.55546 -81.75261 10 ft 13 kts 207°
2026-05-05 01:18 24.55533 -81.75345 10 ft 0 kts 270°
2026-05-05 01:19 24.55533 -81.75346 10 ft 0 kts 270°
2026-05-05 01:19 24.55522 -81.75379 11 ft 6 kts 215°
2026-05-05 01:20 24.55485 -81.75405 9 ft 7 kts 227°
2026-05-05 01:20 24.55475 -81.75418 9 ft 2 kts 228°
2026-05-05 01:20 24.55474 -81.75419 9 ft 0 kts 228°
2026-05-05 01:49 24.55473 -81.75420 9 ft 1 kts 229°
2026-05-05 01:49 24.55473 -81.75440 10 ft 4 kts 303°
2026-05-05 01:49 24.55515 -81.75450 9 ft 8 kts 351°
2026-05-05 01:50 24.55529 -81.75507 9 ft 9 kts 271°
2026-05-05 01:50 24.55530 -81.75587 10 ft 12 kts 270°
2026-05-05 01:50 24.55530 -81.75698 9 ft 16 kts 270°
2026-05-05 01:50 24.55528 -81.75826 9 ft 18 kts 269°
2026-05-05 01:51 24.55528 -81.75961 9 ft 17 kts 269°
2026-05-05 01:51 24.55526 -81.76097 9 ft 17 kts 269°
2026-05-05 01:51 24.55524 -81.76229 9 ft 18 kts 269°
2026-05-05 01:51 24.55524 -81.76366 9 ft 17 kts 269°
2026-05-05 01:52 24.55521 -81.76492 9 ft 16 kts 269°
2026-05-05 01:52 24.55521 -81.76601 9 ft 12 kts 270°
2026-05-05 01:52 24.55526 -81.76640 10 ft 0 kts 299°
2026-05-05 01:56 24.55529 -81.76644 9 ft 3 kts 303°
2026-05-05 01:56 24.55566 -81.76659 8 ft 9 kts 351°
2026-05-05 01:56 24.55606 -81.76634 8 ft 0 kts 90°
2026-05-05 01:56 24.55606 -81.76599 8 ft 29 kts 89°
2026-05-05 01:57 24.55611 -81.76057 9 ft 108 kts 89°
2026-05-05 01:57 24.55619 -81.75031 236 ft 144 kts 92°
2026-05-05 01:57 24.55861 -81.73971 914 ft 152 kts 54°
2026-05-05 01:57 24.56777 -81.73358 1552 ft 162 kts 19°
2026-05-05 01:58 24.57916 -81.73144 2177 ft 173 kts
2026-05-05 01:58 24.59185 -81.73018 2635 ft 194 kts
2026-05-05 01:58 24.60617 -81.72885 3059 ft 219 kts
2026-05-05 01:58 24.62213 -81.72741 3578 ft 243 kts
2026-05-05 01:59 24.63982 -81.72583 4182 ft 265 kts
2026-05-05 01:59 24.65850 -81.72417 5120 ft 273 kts
2026-05-05 01:59 24.67766 -81.72246 6105 ft 279 kts
2026-05-05 01:59 24.69728 -81.72043 7021 ft 286 kts
2026-05-05 02:00 24.71660 -81.71419 7954 ft 295 kts 21°
2026-05-05 02:00 24.73441 -81.70238 8891 ft 304 kts 36°
2026-05-05 02:00 24.74961 -81.68592 9816 ft 310 kts 45°
2026-05-05 02:00 24.76461 -81.66827 10428 ft 326 kts 44°
2026-05-05 02:01 24.78074 -81.64946 10768 ft 350 kts 44°
2026-05-05 02:01 24.79805 -81.62935 11102 ft 372 kts 44°
2026-05-05 02:01 24.81608 -81.60838 11726 ft 382 kts 44°
2026-05-05 02:01 24.83449 -81.58693 12457 ft 388 kts 43°
2026-05-05 02:02 24.85349 -81.56558 13193 ft 393 kts 41°
2026-05-05 02:02 24.87308 -81.54439 13926 ft 398 kts 40°
2026-05-05 02:02 24.89315 -81.52310 14558 ft 403 kts 40°
2026-05-05 02:02 24.91349 -81.50161 15207 ft 407 kts 40°
2026-05-05 02:03 24.93398 -81.47987 15843 ft 412 kts 40°
2026-05-05 02:03 24.95469 -81.45770 16472 ft 417 kts 40°
2026-05-05 02:03 24.97560 -81.43516 17121 ft 422 kts 40°
2026-05-05 02:03 24.99672 -81.41235 17764 ft 427 kts 40°
2026-05-05 02:04 25.01807 -81.38928 18385 ft 432 kts 40°
2026-05-05 02:04 25.03933 -81.36629 18958 ft 436 kts 40°
2026-05-05 02:04 25.06107 -81.34276 19552 ft 440 kts 39°
2026-05-05 02:04 25.08297 -81.31906 20155 ft 442 kts 39°
2026-05-05 02:05 25.10499 -81.29521 20742 ft 445 kts 39°
2026-05-05 02:05 25.12718 -81.27116 21320 ft 448 kts 39°
2026-05-05 02:05 25.14948 -81.24695 21883 ft 451 kts 39°
2026-05-05 02:05 25.17190 -81.22260 22438 ft 454 kts 39°
2026-05-05 02:06 25.19450 -81.19805 22983 ft 457 kts 39°
2026-05-05 02:06 25.21722 -81.17338 23521 ft 460 kts 38°
2026-05-05 02:06 25.24008 -81.14856 23971 ft 462 kts 38°
2026-05-05 02:06 25.26307 -81.12365 24425 ft 464 kts 38°
2026-05-05 02:07 25.28615 -81.09862 24884 ft 466 kts 38°
2026-05-05 02:07 25.30926 -81.07351 25348 ft 467 kts 38°
2026-05-05 02:07 25.33262 -81.04837 25798 ft 467 kts 36°
2026-05-05 02:07 25.35829 -81.02677 26254 ft 460 kts 25°
2026-05-05 02:08 25.38634 -81.01057 26703 ft 453 kts 15°
2026-05-05 02:08 25.41601 -80.99995 27146 ft 445 kts
2026-05-05 02:08 25.44643 -80.99502 27585 ft 438 kts 356°
2026-05-05 02:08 25.47688 -80.99378 28027 ft 439 kts 355°
2026-05-05 02:09 25.50748 -80.99257 28466 ft 440 kts 355°
2026-05-05 02:09 25.53815 -80.99127 28890 ft 442 kts 355°
2026-05-05 02:09 25.56900 -80.98991 29299 ft 444 kts 355°
2026-05-05 02:09 25.59998 -80.98852 29713 ft 446 kts 356°
2026-05-05 02:10 25.63101 -80.98710 30118 ft 447 kts 356°
2026-05-05 02:10 25.66201 -80.98571 30607 ft 445 kts 355°
2026-05-05 02:10 25.69286 -80.98436 31097 ft 443 kts 355°
2026-05-05 02:10 25.72353 -80.98303 31586 ft 440 kts 355°
2026-05-05 02:11 25.75413 -80.98173 32084 ft 438 kts 355°
2026-05-05 02:11 25.78453 -80.98043 32581 ft 436 kts 355°
2026-05-05 02:11 25.81475 -80.97911 33083 ft 434 kts 355°
2026-05-05 02:11 25.84484 -80.97779 33589 ft 432 kts 354°
2026-05-05 02:12 25.87482 -80.97650 34089 ft 430 kts 354°
2026-05-05 02:12 25.93439 -80.97398 34947 ft 427 kts 354°
2026-05-05 02:12 25.96349 -80.97274 35346 ft 426 kts 354°
2026-05-05 02:13 25.99360 -80.97146 35745 ft 425 kts 353°
2026-05-05 02:13 26.02273 -80.97021 36120 ft 424 kts 353°
2026-05-05 02:13 26.05223 -80.96891 36492 ft 424 kts 353°
2026-05-05 02:13 26.08166 -80.96764 36851 ft 423 kts 353°
2026-05-05 02:14 26.11071 -80.96639 37201 ft 422 kts 353°
2026-05-05 02:14 26.14042 -80.96512 37560 ft 422 kts 353°
2026-05-05 02:14 26.16973 -80.96386 37895 ft 421 kts 353°
2026-05-05 02:14 26.19907 -80.96258 38024 ft 422 kts 353°
2026-05-05 02:15 26.22840 -80.96129 38039 ft 421 kts 353°
2026-05-05 02:15 26.28704 -80.95874 38039 ft 421 kts 352°
2026-05-05 02:16 26.34559 -80.95616 38038 ft 421 kts 352°
2026-05-05 02:16 26.40421 -80.95371 38039 ft 421 kts 352°
2026-05-05 02:17 26.46281 -80.94958 38044 ft 425 kts 355°
2026-05-05 02:17 26.52195 -80.94252 38049 ft 427 kts 356°
2026-05-05 02:18 26.58105 -80.93533 38056 ft 427 kts 356°
2026-05-05 02:18 26.63022 -80.92977 38064 ft 427 kts 355°